Location: Alafon
(8.4500°N, 4.2333°E)
Time: 01:52:49
(UTC+00:00)

Orbus 7S - Pass Details

Date: 05 July 2020
Orbit: 362 x 11860 km, 27.2° (Epoch: 06 August)

Event Time Altitude Azimuth Distance (km) Brightness Sun altitude
Rises 19:23:43 0° 311° (NW) 2,173 7.9 -18.3°
Reaches altitude 10° 19:25:28 10° 322° (NW) 1,361 6.3 -18.7°
Maximum altitude 19:27:54 34° 32° (NNE) 778 4.0 -19.2°
Enters shadow 19:28:22 32° 52° (NE) 850 4.0 -19.3°
